This is the latest recevied weather packets stored in our database for station/object R2AKT-13. If no packets are shown the sender has not sent any weather packets the latest 10 day(s).
| Time | Temp. | Humidity | Pressure | Rain* | Wind** | Luminosity | Snow |
|---|---|---|---|---|---|---|---|
| 1777552424 | 3.89° C | 49% | 997.4 hPa | - | 0.89 m/s, 305° | - | - |
| 1777551844 | 3.33° C | 49% | 997.5 hPa | - | 1.34 m/s, 296° | - | - |
| 1777551354 | 3.89° C | 49% | 997.6 hPa | - | 0.45 m/s, 295° | - | - |
| 1777550809 | 3.33° C | 50% | 997.7 hPa | - | 0.45 m/s, 142° | - | - |
| 1777550319 | 3.89° C | 51% | 997.6 hPa | - | 0.45 m/s, 279° | - | - |
| 1777549794 | 3.89° C | 53% | 997.7 hPa | - | 0.45 m/s, 250° | - | - |
| 1777549214 | 3.89° C | 52% | 997.8 hPa | - | 0.45 m/s, 255° | - | - |
| 1777548664 | 2.78° C | 55% | 997.9 hPa | - | 0.89 m/s, 262° | - | - |
| 1777548159 | 2.78° C | 57% | 997.9 hPa | - | 1.34 m/s, 291° | - | - |
| 1777547664 | 2.78° C | 59% | 998 hPa | - | 0.89 m/s, 287° | - | - |
| 1777547139 | 2.78° C | 59% | 997.9 hPa | - | 1.34 m/s, 310° | - | - |
| 1777546594 | 2.78° C | 60% | 997.9 hPa | - | 1.34 m/s, 294° | - | - |
| 1777546004 | 2.78° C | 61% | 997.9 hPa | - | 1.79 m/s, 278° | - | - |
| 1777545504 | 3.33° C | 60% | 997.8 hPa | - | 1.34 m/s, 201° | - | - |
| 1777544934 | 3.33° C | 60% | 997.8 hPa | - | 0.89 m/s, 73° | - | - |
| 1777544419 | 3.33° C | 60% | 997.7 hPa | - | 0.45 m/s, 115° | - | - |
| 1777543934 | 3.89° C | 55% | 997.7 hPa | - | 0.89 m/s, 125° | - | - |
| 1777543374 | 3.89° C | 45% | 997.7 hPa | - | 0.45 m/s, 330° | - | - |
| 1777542829 | 3.89° C | 46% | 997.7 hPa | - | 0 m/s | - | - |
| 1777542299 | 3.33° C | 48% | 997.7 hPa | - | 0 m/s | - | - |
| 1777541779 | 3.33° C | 44% | 997.8 hPa | - | 1.34 m/s, 241° | - | - |
| 1777541264 | 3.89° C | 52% | 997.8 hPa | - | 0 m/s | - | - |
| 1777540714 | 3.89° C | 50% | 997.7 hPa | - | 0.89 m/s, 115° | - | - |
| 1777540174 | 3.89° C | 56% | 997.7 hPa | - | 0.89 m/s, 94° | - | - |
| 1777539654 | 3.89° C | 59% | 997.8 hPa | - | 0.45 m/s, 309° | - | - |
* Rain since midnight (hover to see other rain measurements)
** Current wind speed in m/s (hover to see current wind gust speed)